www.pogodaiklimat.ru

Погода и климат >> Архив погоды >> Россия >> Ленинградская область >> Шугозеро


ПОГОДА в Шугозере

  • Прогноз погоды в Шугозере
  • Монитор погоды в Шугозере

АРХИВ ПОГОДЫ в Шугозере

Время (UTC), дата Ветер
(напр.,м/с)
 
Видим.   Явления Облачность Т
(С)
Тd
(С)
f
(%)
Тe
(С)
Тes
(С)
Комфортность P
(гПа)
Po
(гПа)
Тmin
(С)
Tmax
(С)
R
(мм)
R24
(мм)
S
(см)
15 15.09 ЮВ 2 н/о н/о +7.5 +6.5 93 +5 +5 998.6 986.9 0.3
18 15.09 ЮВ 2 н/о н/о +7.7 +7.1 96 +5 +5 991.7 980.1 +9.7 3
21 15.09 ЮЗ 3 н/о н/о +9.5 +8.8 95 +7 +7 989.0 977.5
00 16.09 ЮЗ 3 н/о н/о +9.4 +8.6 95 +7 +7 989.0 977.5
03 16.09 ЮЗ 2 н/о н/о +9.0 +8.0 93 +7 +7 988.7 977.2 +7.3 7
06 16.09 ЮЗ 2 н/о н/о +9.4 +8.3 93 +8 +8 987.9 976.4 +7.7 7
09 16.09 ЮЗ 3
{10}
н/о н/о +11.6 +8.1 79 +10 +10 987.5 976.1
12 16.09 ЮЗ 3 н/о н/о +12.4 +7.5 72 +11 +11 987.0 975.7
15 16.09 Ю 1 н/о н/о +8.2 +7.5 95 +7 +7 987.3 975.8 8
18 16.09 З 2 н/о н/о +8.7 +8.1 96 +7 +7 987.8 976.3 +12.9 6
21 16.09 З 2 н/о н/о +7.8 +6.9 94 +6 +6 990.0 978.4
00 17.09 ЮЗ 2 н/о н/о +6.6 +5.9 95 +4 +4 991.2 979.6
03 17.09 ЮЗ 1 н/о н/о +7.0 +6.6 97 +6 +6 991.2 979.6 +6.5 2
06 17.09 З 1 н/о н/о +8.1 +7.4 95 +7 +7 991.6 980.0 +6.5 2
09 17.09 З 2 н/о н/о +9.0 +8.1 94 +7 +7 992.8 981.2
12 17.09 ЮЗ 1 н/о н/о +9.2 +7.9 92 +8 +8 994.0 982.4
15 17.09 ЮЗ 2 н/о н/о +9.1 +7.7 91 +7 +7 994.8 983.2 3
18 17.09 З 1 н/о н/о +7.6 +6.5 93 +7 +7 995.7 984.1 +11.0 2
21 17.09 ЮЗ 1 н/о н/о +6.8 +6.1 95 +6 +6 996.3 984.6
00 18.09 З 1 н/о н/о +6.8 +6.4 97 +6 +6 996.6 984.9
03 18.09 СЗ 1 н/о н/о +7.1 +6.4 95 +6 +6 997.1 985.4 +6.7
09 18.09 СЗ 1 н/о н/о +9.4 +6.0 79 +9 +9 999.7 988.1
12 18.09 СЗ 1 н/о н/о +10.9 +4.7 66 +11 +11 1000.7 989.1
15 18.09 С 1 н/о н/о +10.5 +5.1 69 +10 +10 1001.2 991.0 0.3
18 18.09 С 2 н/о н/о +6.7 +4.8 88 +4 +4 1004.5 992.7 +12.2 0.3
21 18.09 СЗ 2 н/о н/о +5.6 +3.7 88 +3 +3 1005.8 993.9
00 19.09 С 1 н/о н/о +4.8 +3.4 91 +3 +3 1007.2 995.3
03 19.09 СЗ 1 н/о н/о +4.7 +3.4 91 +3 +3 1008.6 996.7 +4.7
06 19.09 С 1 н/о н/о +4.8 +2.2 83 +4 +4 1010.6 998.6 +4.3
09 19.09 С 3 н/о н/о +8.6 +1.0 59 +6 +6 1011.7 999.9
12 19.09 ЮЗ 2 н/о н/о +8.5 +0.7 58 +7 +7 1012.5 1000.6
15 19.09 СЗ 1 н/о н/о +7.5 +0.4 61 +7 +7 1013.1 1001.2
18 19.09 штиль 0 н/о н/о +2.0 +1.0 93 +1 +1 1014.1 1001.9 +9.8
21 19.09 штиль 0 н/о н/о -0.1 -0.8 95 -1 -1 1014.0 1001.8
00 20.09 штиль 0 н/о н/о -1.3 -1.7 97 -3 -3 1014.1 1001.8
03 20.09 штиль 0 н/о н/о -1.9 -2.3 97 -3 -3 1013.1 1000.8 -2.0
06 20.09 Ю 1 н/о н/о +2.3 +1.6 95 0 0 1012.4 1000.3 -2.2
09 20.09 З 1 н/о н/о +5.6 +2.7 82 +4 +4 1013.8 1001.8
12 20.09 З 1 н/о н/о +9.1 -0.4 51 +9 +9 1013.6 1001.8
15 20.09 З 2 н/о н/о +4.4 +2.2 86 +2 +2 1014.4 1002.4
18 20.09 ЮВ 1 н/о н/о +1.1 +0.5 96 -1 -1 1014.5 1002.3 +9.1 0.3
21 20.09 Ю 1 н/о н/о +1.5 +1.0 96 -1 -1 1014.3 1002.2
00 21.09 ЮЗ 1 н/о н/о +3.4 +2.4 93 +2 +2 1013.4 1001.4
03 21.09 штиль 0 н/о н/о +1.6 +0.9 95 0 0 1012.6 1000.5 +0.6 0.5
06 21.09 ЮЗ 1 н/о н/о +2.2 +1.0 92 0 0 1011.7 999.6 +0.7 0.3
09 21.09 ЮЗ 1 н/о н/о +6.8 +3.1 77 +6 +6 1010.3 998.4
12 21.09 ЮЗ 1 н/о н/о +8.6 +3.4 70 +8 +8 1008.4 996.7
15 21.09 штиль 0 н/о н/о +5.6 +4.6 93 +5 +5 1006.8 994.9 0.5
18 21.09 Ю 1 н/о н/о +4.3 +3.6 95 +3 +3 1005.5 993.6 +8.6 2
21 21.09 З 1 н/о н/о +4.0 +3.6 97 +2 +2 1004.0 992.1
00 22.09 З 1 н/о н/о +3.3 +2.5 94 +2 +2 1003.5 991.6
03 22.09 З 1 н/о н/о +2.1 +1.5 96 0 0 1003.9 991.9 +2.1 3
06 22.09 СЗ 2 н/о н/о +2.1 +1.2 94 -1 -1 1004.9 993.6 +1.9 2
09 22.09 С 2 н/о н/о +4.8 +2.2 83 +2 +2 1007.5 995.6

 

Местоположение метеостанции Шугозеро (Ленинградская область, Россия): широта 59.95 долгота 34.06 высота над уровнем моря 91 м.

В архиве по умолчанию представлена погода в Шугозере за последнюю неделю. Архивные данные за месяц целиком и за предыдущие месяцы, начиная с января 2011 года, Вы можете получить, выбрав интересующий диапазон дат из раскрывающегося списка и нажав кнопку "Ввод!".


*Определитесь, кто Вы:
робот инопланетянин человек

Внимание! Время в таблицах - всемирное. Для получения местного времени необходимо прибавить поправку, которая равна 3 ч.

Смотрите также архив погоды в соседних городах и на ближайших метеорологических станциях:

Погода в Тихвине (Ленинградская область, Россия) (44 км)
Погода в Ефимовской (Ленинградская область, Россия) (62 км)
Погода в Винницах (Ленинградская область, Россия) (85 км)
Погода в Лодейном Поле (Ленинградская область, Россия) (90 км)
Погода в Новой Ладоге (Ленинградская область, Россия) (98 км)
Погода в Бабаево (Вологодская область, Россия) (122 км)
Погода в Киришах (Ленинградская область, Россия) (127 км)
Погода в Олонце (Карелия, Россия) (129 км)
Погода в Вознесенье (Ленинградская область, Россия) (142 км)
Погода в Боровичах (Новгородская область, Россия) (170 км)

Пояснения к столбцам:

Ветер - указаны скорость ветра в м/с - средняя за 10 мин, порывы в срок и между сроками (в фигурных скобках) и направление, откуда дует ветер: С - северный, СВ - северо-восточный, В - восточный, ЮВ - юго-восточный, Ю - южный, ЮЗ - юго-западный, З - западный, СЗ - северо-западный.
Видимость - горизонтальная дальность видимости в метрах или километрах. При видимости от 1 до 10 км при отсутствии осадков обычно наблюдается дымка, при ухудшении видимости до 1 км и менее - туман. В сухую погоду видимость может ухудшаться дымом, пылью или мглою.
Явления - указаны атмосферные явления, наблюдавшиеся в срок или в последний час перед сроком; фигурными скобками обозначены явления, наблюдавшиеся между сроками (за 1-3 часа до срока); квадратными скобками обозначены град или гололедные отложения с указанием их диаметра в мм.
Облачность - указаны через наклонную черту общая и нижняя облачность в баллах и высота нижней границы облаков в метрах; квадратными скобками обозначены формы облаков: Ci - перистые, Cs - перисто-слоистые, Cc - перисто-кучевые, Ac - высококучевые, As - высокослоистые, Sc - слоисто-кучевые, Ns - слоисто-дождевые, Cu - кучевые, Cb - кучево-дождевые. Подробнее классификацию облаков см. в Атласе облаков (PDF).
T - Температура воздуха - температура, измеренная на высоте 2 м над землей.
Td - Температура точки росы - температура, при понижении до которой содержащийся в воздухе водяной пар достигнет насыщения.
f - Относительная влажность воздуха - влажноcть воздуха, измеренная на высоте 2 м над землей.
Te - Эффективная температура - температура, которую ощущает одетый по сезону человек в тени. Характеристика душности погоды. При расчете учитывается влияние влажности воздуха и скорости ветра на теплоощущения человека.
Tes - Эффективная температура на солнце - температура, которую ощущает человек, с поправкой на солнечный нагрев. Характеристика знойности погоды. Зависит от высоты солнца над горизонтом, облачности и скорости ветра. Ночью, в пасмурную погоду, а также при ветре 12 м/с и более поправка равна нулю.
P - Атмосферное давление - приведенное к уровню моря атмосферное давление.
Po - Атмосферное давление - измеренное на уровне метеостанции атмосферное давление.
Tmin - Минимальная температура - минимум температуры воздуха на высоте 2 м над землей.
Tmax - Максимальная температура - максимум температуры воздуха на высоте 2 м над землей.
R - Количество осадков - Количество выпавших осадков за период времени, мм. При наведении курсора мыши на число - период времени, за который выпало указанное количество осадков.
R24 - Количество осадков - Количество выпавших осадков за 24 часа, мм.
S - Снежный покров - Высота снежного покрова, см. При наведении курсора мыши на число - состояние снежного покрова и степень покрытия местности в баллах.